User: anonymous   Login
Location: Ottawa
(45.4170°N, 75.7000°W)
Time: 08:22:05
(UTC-04:00)
Language:

Aureole 3 Rocket - Orbit

View from above orbital plane
View from above orbital plane
View from above satellite
View from above satellite

Ground track
Ground track

The orbit data is extracted from the following two-line orbital elements,

1 12849U 81094B   15213.46227876  .00001138  00000-0  10186-3 0  9992
2 12849 082.4958 332.6678 0907726 097.8378 272.6659 13.49349664649421
Epoch (UTC): 01 August 2015 11:05:40
Eccentricity: 0.0907726
inclination: 82.4958°
perigee height: 398 km
apogee height: 1751 km
right ascension of ascending node: 332.6678°
argument of perigee: 97.8378°
revolutions per day: 13.49349664
mean anomaly at epoch: 272.6659°
orbit number at epoch: 64942

The dashed part of the orbit path shows where the satellite is in the earth's shadow,  

DLR